Regional Weather Roundup
Issued by NWS Grand Forks, ND

Home | Current Version | Previous Version | Graphics & Text | Print | Product List | Glossary On
Versions: 1 2 3 4 5 6 7 8 9 10 11 12 13 14 15 16 17 18 19 20 21 22 23 24 25 26 27 28 29 30 31 32 33 34 35 36 37 38 39 40 41 42 43 44 45 46 47 48 49 50
000
ASUS43 KFGF 311210
RWRFGF
PRAIRIE TO PINES  WEATHER ROUNDUP
NATIONAL WEATHER SERVICE EASTERN NORTH DAKOTA/GRAND FORKS ND
700 AM CDT THU JUL 31 2014

 **SATELLITE DATA USED TO AUGMENT SKY COVER AT AUTOMATED STATIONS**
 *****  WEATHER ACROSS EASTERN NORTH DAKOTA  *****

CITY           SKY/WX    TMP DP  RH WIND       PRES   REMARKS
GRAND FORKS    PTCLDY    59  57  93 W7        30.03S
6HR MIN TEMP:  57; 6HR MAX TEMP:  61;

GRAND FRKS AFB PTCLDY    61  60  99 NW7       30.05R
GRAND FRKS NWS   N/A     59 N/A N/A W3          N/A
DEVILS LAKE    CLEAR     61  54  77 CALM      30.07S
6HR MIN TEMP:  57; 6HR MAX TEMP:  64;

FARGO          CLEAR     56  53  90 CALM      30.04S
WAHPETON ARPT  SUNNY     54  50  87 CALM      30.06S
$$

 ***** WEATHER ACROSS CENTRAL AND WESTERN NORTH DAKOTA  *****

CITY           SKY/WX    TMP DP  RH WIND       PRES   REMARKS
BISMARCK       PTCLDY    55  53  93 CALM      30.10S
6HR MIN TEMP:  55; 6HR MAX TEMP:  64;

MINOT          PTCLDY    57  53  86 SW9       30.08S
6HR MIN TEMP:  56; 6HR MAX TEMP:  62;

JAMESTOWN      CLEAR     58  54  86 NW5       30.08S
6HR MIN TEMP:  56; 6HR MAX TEMP:  63;

MINOT AFB      PTCLDY    53  53  99 W7        30.08S
GARRISON         N/A     56  55  97 CALM      30.10R
WILLISTON      CLOUDY    62  60  93 CALM      30.09R
6HR MIN TEMP:  62; 6HR MAX TEMP:  69; 6HR PCP:  0.08;

DICKINSON      MOCLDY    58  54  86 NE6       30.13R
6HR MIN TEMP:  55; 6HR MAX TEMP:  60;

HETTINGER      PTCLDY    53  51  93 MISG      30.15S FOG
6HR MIN TEMP:  48; 6HR MAX TEMP:  59;

$$

 *****  OTHER AIRPORT OBSERVATIONS IN OUR AREA  *****

CITY           SKY/WX    TMP DP  RH WIND       PRES   REMARKS
WALHALLA       NOT AVBL
GRAFTON AIRPOR FAIR      61  59  94 NW6       30.04R
VALLEY CITY AR FAIR      55  55 100 CALM      30.08R
CANDO          FAIR      55  54  94 W3        30.08S
CAVALIER APRT  FAIR      59  57  94 W5        30.04S
GWINNER        PTSUNNY   59  57  94 W6        30.08S
SHEYENNE NWR     N/A     52  51  98 SW2       29.95S
ROLLA          FAIR      55  55 100 CALM      30.09F
 ***** THE ABOVE OBSERVATIONS ARE NON NWS ARE NOT QUALITY
       CONTROLLED AND MAY MIS-REPORT RAIN FOR SNOW...
$$

  *****  WEATHER ACROSS NORTHERN MINNESOTA  *****

CITY           SKY/WX    TMP DP  RH WIND       PRES   REMARKS
FLAG ISLAND    CLEAR     64  61  88 NW5       30.01R
WARROAD        CLEAR     57  54  88 CALM      30.02S
ROSEAU         CLEAR     57  52  82 CALM      30.02S HAZE
HALLOCK        CLEAR     57  55  94 CALM      30.03R
THF RVR FALLS  CLEAR     57  55  94 SW3       30.03S
6HR MIN TEMP:  57; 6HR MAX TEMP:  63;

BAUDETTE       CLEAR     59  57  93 CALM      30.02R
6HR MIN TEMP:  57; 6HR MAX TEMP:  65;

WASKISH        CLEAR     63  59  88 NW5       30.01S
CROOKSTON      CLEAR     57  55  94 CALM      30.04S
$$
  *****  WEATHER ACROSS CENTRAL AND WEST MINNESOTA  *****

CITY           SKY/WX    TMP DP  RH WIND       PRES   REMARKS
FOSSTON        CLEAR     54  52  94 S5        30.05S
BEMIDJI        CLEAR     58  54  86 W5        30.04S
PARK RAPIDS    PTCLDY    55  54  96 W3        30.05S
6HR MIN TEMP:  53; 6HR MAX TEMP:  57;

ELBOW LAKE     FAIR      55  55  99 CALM      30.06S
6HR MIN TEMP:  55; 6HR MAX TEMP:  60;

WADENA         PTCLDY    55  55 100 CALM      30.05S
DETROIT LAKES  PTCLDY    59  59 100 CALM      30.07S
MOORHEAD       PTCLDY    57  57 100 CALM      30.06R
FERGUS FALLS   FOG       57  55  94 CALM      30.06S VSB 1/2
MORRIS MN      PTCLDY    55  54  94 W3        30.06S
STAPLES        PTCLDY    55  54  94 CALM      30.05S
$$
  *****  WEATHER ELSEWHERE ACROSS MINNESOTA  *****

CITY           SKY/WX    TMP DP  RH WIND       PRES   REMARKS
DULUTH         SUNNY     59  55  87 NW6       29.99S
6HR MIN TEMP:  56; 6HR MAX TEMP:  64;

INTRNTL FALLS  SUNNY     49  48  97 CALM      30.00S
6HR MIN TEMP:  46; 6HR MAX TEMP:  55;

ELY            FOG       48  48 100 CALM      30.00S VSB<1/4
CLOQUET        SUNNY     57  55  94 W7        30.00S
WHEATON        PTCLDY    57  54  88 CALM      30.08S
BRAINERD       MOCLDY    55  55 100 S3        30.04S
6HR MIN TEMP:  53; 6HR MAX TEMP:  57;

HIBBING        SUNNY     51  49  92 CALM      30.01R
6HR MIN TEMP:  49; 6HR MAX TEMP:  63; 6HR PCP: TRACE;

ALEXANDRIA     CLEAR     59  56  89 CALM      30.08R
6HR MIN TEMP:  57; 6HR MAX TEMP:  62;

SAINT CLOUD    CLEAR     57  53  86 CALM      30.05R
6HR MIN TEMP:  54; 6HR MAX TEMP:  63;

MINNEAPOLIS    PTCLDY    63  59  87 SW3       30.04S
6HR MIN TEMP:  63; 6HR MAX TEMP:  68;

$$

  *****  WEATHER ACROSS SOUTH DAKOTA  *****

CITY           SKY/WX    TMP DP  RH WIND       PRES   REMARKS
SIOUX FALLS    MOCLDY    58  56  93 NE3       30.09S
6HR MIN TEMP:  53; 6HR MAX TEMP:  61;

BROOKINGS      NOT AVBL
WATERTOWN      CLEAR     52  50  93 CALM      30.09S
6HR MIN TEMP:  52; 6HR MAX TEMP:  59;

HURON          MOCLDY    57  55  93 N9        30.08R
6HR MIN TEMP:  57; 6HR MAX TEMP:  63;

SISSETON         N/A     56  54  93 N7        30.06S
ABERDEEN       PTCLDY    54  52  93 W3        30.09S
6HR MIN TEMP:  52; 6HR MAX TEMP:  62;

MITCHELL       CLOUDY    66  61  84 W3        30.08R
PIERRE         CLEAR     57  54  89 NW3       30.07R
6HR MIN TEMP:  57; 6HR MAX TEMP:  67;

MOBRIDGE       CLEAR     60  53  77 E10       30.07F
RAPID CITY     CLEAR     57  46  66 NW10      30.17R
6HR MIN TEMP:  54; 6HR MAX TEMP:  64;

$$

  *****  SOME WEATHER IN NEARBY STATES *****

CITY           SKY/WX    TMP DP  RH WIND       PRES   REMARKS
GLASGOW MT     CLEAR     66  47  50 SE16      30.05F
6HR MIN TEMP:  64; 6HR MAX TEMP:  69;

GREAT FALLS MT CLEAR     61  43  51 S12       30.14R
6HR MIN TEMP:  57; 6HR MAX TEMP:  71;

CHEYENNE WY    CLEAR     50  44  80 W9        30.32R
6HR MIN TEMP:  50; 6HR MAX TEMP:  58;

SCOTTSBLUFF NE CLEAR     53  52  96 W3        30.21F
6HR MIN TEMP:  53; 6HR MAX TEMP:  63;

OMAHA NE       PTCLDY    61  56  83 SE3       30.11S
6HR MIN TEMP:  58; 6HR MAX TEMP:  63;

DES MOINES IA  PTCLDY    60  56  86 SW3       30.10R
6HR MIN TEMP:  59; 6HR MAX TEMP:  67;

DAVENPORT IA   SUNNY     58  56  93 W6        30.07R FOG
6HR MIN TEMP:  55; 6HR MAX TEMP:  60;

CHICAGO IL     PTSUNNY   64  55  72 NW5       30.02S
6HR MIN TEMP:  59; 6HR MAX TEMP:  64;

EAU CLAIRE WI  SUNNY     59  57  93 SW5       30.01R
6HR MIN TEMP:  58; 6HR MAX TEMP:  61;

LA CROSSE WI   SUNNY     63  59  87 SE5       30.02S
6HR MIN TEMP:  62; 6HR MAX TEMP:  67;

$$

  *****  SOME NATIONAL WEATHER *****

CITY           SKY/WX    TMP DP  RH WIND       PRES   REMARKS
LA GUARDIA NY  PTSUNNY   71  55  56 SW9       30.09R
6HR MIN TEMP:  70; 6HR MAX TEMP:  72;

RALEIGH NC     PTSUNNY   69  65  86 CALM      30.12R
6HR MIN TEMP:  66; 6HR MAX TEMP:  71;

ATLANTA GA     CLOUDY    71  63  75 E8        30.05S
6HR MIN TEMP:  69; 6HR MAX TEMP:  73;

NEW ORLEANS LA MOCLDY    73  65  75 CALM      30.01R HAZE
6HR MIN TEMP:  70; 6HR MAX TEMP:  76;

OKLAHOMA CITY  LGT RAIN  68  65  90 NE10      30.07R FOG
6HR MIN TEMP:  68; 6HR MAX TEMP:  70; 6HR PCP:  0.03;

ALBUQUERQUE NM PTCLDY    63  56  78 E13       30.28S
6HR MIN TEMP:  63; 6HR MAX TEMP:  69; 6HR PCP:  0.05;

SALT LAKE CITY MOCLDY    64  55  72 N5        30.17S
6HR MIN TEMP:  63; 6HR MAX TEMP:  72;

LOS ANGELES CA CLEAR     67  62  84 CALM      29.91S
6HR MIN TEMP:  67; 6HR MAX TEMP:  70;



USA.gov is the U.S. government's official web portal to all federal, state and local government web resources and services.